QPF
0.00 0.01 0.01 0.01 0.00 0.00 0.00 0.00 0.01 0.01 0.01 0.01 0.02 0.04 0.06 0.07 0.07 0.07 0.07 0.05 0.04 0.04 0.04 0.05 0.05 0.05 0.04 0.04 0.05 0.08 0.09 0.08 0.07 0.08 0.09 0.08 0.06 0.07 0.09 0.08 0.07 0.05 0.05
0.01 0.01 0.01 0.01 0.01 0.01 0.01 0.00 0.00 0.01 0.01 0.02 0.02 0.04 0.05 0.06 0.05 0.05 0.05 0.05 0.06 0.05 0.05 0.05 0.06 0.06 0.05 0.05 0.05 0.07 0.08 0.09 0.09 0.08 0.06 0.05 0.06 0.06 0.07 0.07 0.07 0.08 0.08
0.01 0.01 0.01 0.01 0.01 0.01 0.01 0.00 0.00 0.00 0.00 0.01 0.01 0.02 0.03 0.04 0.04 0.04 0.05 0.06 0.07 0.06 0.05 0.04 0.06 0.07 0.07 0.05 0.05 0.06 0.05 0.06 0.06 0.07 0.05 0.03 0.03 0.05 0.06 0.06 0.06 0.06 0.07
0.02 0.02 0.01 0.01 0.02 0.02 0.01 0.01 0.01 0.01 0.01 0.01 0.01 0.01 0.02 0.03 0.03 0.03 0.04 0.06 0.06 0.05 0.04 0.04 0.04 0.07 0.06 0.04 0.04 0.03 0.03 0.03 0.04 0.05 0.06 0.06 0.05 0.05 0.06 0.05 0.04 0.04 0.05
0.02 0.02 0.02 0.03 0.02 0.01 0.01 0.01 0.01 0.01 0.01 0.01 0.02 0.02 0.02 0.03 0.03 0.03 0.03 0.04 0.04 0.04 0.04 0.06 0.06 0.05 0.04 0.03 0.03 0.03 0.02 0.03 0.03 0.04 0.05 0.07 0.06 0.05 0.05 0.04 0.04 0.04 0.05
0.01 0.01 0.01 0.01 0.01 0.01 0.01 0.01 0.01 0.01 0.01 0.01 0.01 0.02 0.03 0.03 0.03 0.03 0.03 0.04 0.05 0.07 0.09 0.08 0.07 0.05 0.03 0.03 0.03 0.03 0.02 0.03 0.03 0.03 0.04 0.04 0.05 0.06 0.07 0.06 0.05 0.04 0.04
0.02 0.01 0.01 0.01 0.01 0.01 0.00 0.00 0.01 0.01 0.01 0.01 0.01 0.01 0.02 0.03 0.03 0.05 0.04 0.04 0.06 0.09 0.05 0.04 0.05 0.05 0.04 0.05 0.05 0.04 0.03 0.03 0.03 0.04 0.04 0.05 0.06 0.07 0.08 0.09 0.06 0.04 0.04
0.02 0.01 0.00 0.00 0.00 0.00 0.00 0.00 0.00 0.00 0.00 0.00 0.01 0.01 0.02 0.03 0.03 0.05 0.03 0.03 0.04 0.05 0.04 0.05 0.04 0.04 0.04 0.05 0.05 0.04 0.03 0.03 0.03 0.03 0.04 0.05 0.07 0.08 0.06 0.06 0.05 0.04 0.04
0.01 0.01 0.00 0.00 0.00 0.00 0.00 0.00 0.00 0.00 0.00 0.01 0.01 0.01 0.01 0.02 0.02 0.02 0.02 0.02 0.02 0.03 0.03 0.03 0.03 0.03 0.03 0.03 0.03 0.02 0.02 0.03 0.03 0.03 0.04 0.05 0.05 0.05 0.04 0.05 0.05 0.04 0.03
0.01 0.00 0.00 0.00 0.00 0.00 0.00 0.00 0.00 0.00 0.00 0.00 0.01 0.01 0.01 0.02 0.02 0.02 0.02 0.02 0.02 0.02 0.03 0.03 0.04 0.03 0.02 0.02 0.02 0.01 0.01 0.01 0.01 0.02 0.02 0.03 0.03 0.04 0.05 0.04 0.04 0.03 0.03
0.01 0.00 0.00 0.00 0.00 0.00 0.00 0.00 0.00 0.00 0.00 0.00 0.01 0.01 0.01 0.01 0.02 0.02 0.01 0.01 0.01 0.01 0.03 0.03 0.03 0.03 0.02 0.01 0.01 0.01 0.01 0.01 0.01 0.02 0.02 0.02 0.02 0.03 0.03 0.03 0.03 0.03 0.04
0.01 0.00 0.00 0.00 0.00 0.00 0.00 0.00 0.00 0.00 0.00 0.00 0.00 0.00 0.01 0.01 0.01 0.01 0.01 0.00 0.00 0.01 0.01 0.02 0.02 0.02 0.02 0.02 0.01 0.01 0.01 0.01 0.02 0.02 0.02 0.02 0.02 0.04 0.03 0.02 0.02 0.02 0.02
0.02 0.01 0.00 0.00 0.00 0.00 0.00 0.00 0.00 0.00 0.00 0.00 0.00 0.00 0.00 0.00 0.00 0.01 0.01 0.01 0.01 0.01 0.01 0.01 0.01 0.01 0.01 0.01 0.02 0.02 0.02 0.02 0.02 0.02 0.03 0.02 0.02 0.03 0.02 0.02 0.02 0.02 0.02
0.01 0.01 0.00 0.00 0.00 0.00 0.00 0.00 0.00 0.00 0.00 0.00 0.00 0.00 0.00 0.01 0.01 0.02 0.03 0.02 0.02 0.01 0.01 0.01 0.01 0.01 0.01 0.01 0.01 0.01 0.01 0.01 0.01 0.01 0.02 0.01 0.01 0.02 0.02 0.01 0.01 0.02 0.02
0.01 0.01 0.01 0.01 0.01 0.00 0.00 0.00 0.00 0.01 0.01 0.01 0.01 0.01 0.01 0.01 0.01 0.02 0.03 0.02 0.01 0.01 0.01 0.01 0.01 0.01 0.01 0.01 0.01 0.00 0.01 0.01 0.01 0.01 0.01 0.01 0.02 0.02 0.01 0.01 0.01 0.01 0.01
0.02 0.01 0.01 0.02 0.02 0.02 0.01 0.01 0.01 0.01 0.01 0.01 0.01 0.01 0.02 0.02 0.01 0.01 0.04 0.03 0.01 0.01 0.01 0.01 0.01 0.01 0.01 0.01 0.01 0.01 0.00 0.00 0.01 0.01 0.00 0.00 0.01 0.01 0.02 0.01 0.01 0.01 0.01
0.03 0.02 0.02 0.03 0.03 0.03 0.02 0.02 0.02 0.01 0.01 0.01 0.02 0.02 0.03 0.03 0.03 0.02 0.04 0.02 0.01 0.01 0.01 0.01 0.00 0.00 0.01 0.00 0.00 0.01 0.01 0.00 0.00 0.00 0.00 0.00 0.00 0.01 0.01 0.01 0.01 0.01 0.01
0.02 0.02 0.02 0.02 0.02 0.02 0.02 0.02 0.02 0.02 0.02 0.03 0.03 0.03 0.06 0.06 0.04 0.03 0.03 0.02 0.02 0.01 0.01 0.01 0.00 0.00 0.00 0.00 0.00 0.01 0.00 0.00 0.00 0.00 0.01 0.00 0.00 0.01 0.01 0.00 0.00 0.00 0.01
0.02 0.01 0.01 0.02 0.02 0.02 0.02 0.03 0.03 0.03 0.03 0.04 0.04 0.04 0.06 0.07 0.07 0.06 0.06 0.04 0.03 0.02 0.01 0.01 0.01 0.01 0.01 0.01 0.01 0.01 0.01 0.01 0.01 0.02 0.01 0.01 0.00 0.02 0.01 0.00 0.00 0.01 0.01
0.01 0.01 0.02 0.02 0.02 0.02 0.02 0.03 0.04 0.05 0.04 0.03 0.03 0.04 0.05 0.06 0.08 0.08 0.07 0.05 0.04 0.03 0.02 0.01 0.02 0.02 0.02 0.03 0.03 0.03 0.02 0.01 0.01 0.02 0.02 0.01 0.01 0.02 0.02 0.01 0.01 0.01 0.01
0.02 0.02 0.02 0.02 0.03 0.03 0.03 0.03 0.05 0.07 0.06 0.04 0.04 0.05 0.05 0.05 0.05 0.04 0.04 0.04 0.04 0.03 0.03 0.03 0.03 0.05 0.06 0.07 0.06 0.05 0.03 0.02 0.01 0.01 0.02 0.01 0.01 0.02 0.02 0.02 0.01 0.01 0.01
0.05 0.04 0.03 0.03 0.03 0.04 0.05 0.04 0.06 0.06 0.05 0.05 0.05 0.05 0.05 0.05 0.06 0.06 0.06 0.07 0.06 0.06 0.05 0.04 0.05 0.06 0.08 0.08 0.06 0.05 0.04 0.03 0.02 0.01 0.02 0.02 0.02 0.02 0.02 0.02 0.01 0.02 0.02
0.02 0.02 0.02 0.02 0.02 0.02 0.03 0.04 0.05 0.05 0.05 0.05 0.04 0.04 0.04 0.04 0.05 0.06 0.07 0.07 0.07 0.05 0.03 0.03 0.03 0.05 0.06 0.06 0.03 0.02 0.02 0.02 0.01 0.01 0.01 0.01 0.01 0.01 0.01 0.01 0.02 0.03 0.02
0.02 0.02 0.02 0.01 0.01 0.02 0.02 0.03 0.04 0.04 0.04 0.04 0.05 0.04 0.04 0.05 0.05 0.05 0.05 0.04 0.03 0.03 0.02 0.02 0.02 0.02 0.02 0.02 0.02 0.01 0.01 0.01 0.01 0.00 0.01 0.01 0.01 0.01 0.01 0.01 0.02 0.02 0.02
0.04 0.07 0.06 0.03 0.03 0.03 0.03 0.04 0.04 0.03 0.03 0.04 0.04 0.04 0.05 0.05 0.07 0.07 0.06 0.05 0.03 0.02 0.02 0.03 0.03 0.02 0.02 0.02 0.02 0.01 0.01 0.01 0.00 0.01 0.01 0.00 0.00 0.00 0.00 0.01 0.01 0.01 0.02
0.06 0.08 0.09 0.09 0.08 0.07 0.05 0.04 0.04 0.03 0.04 0.03 0.03 0.03 0.04 0.05 0.07 0.08 0.11 0.11 0.08 0.06 0.05 0.05 0.06 0.04 0.03 0.03 0.02 0.01 0.01 0.01 0.01 0.01 0.01 0.00 0.00 0.00 0.00 0.00 0.01 0.01 0.01
MSLP
1012.40 1012.81 1013.18 1013.47 1013.68 1013.82 1013.92 1014.01 1014.14 1014.31 1014.54 1014.81 1015.08 1015.34 1015.54 1015.67 1015.74 1015.76 1015.77 1015.79 1015.86 1016.00 1016.20 1016.46 1016.76 1017.08 1017.40 1017.71 1018.00 1018.29 1018.57 1018.85 1019.12 1019.37 1019.59 1019.74 1019.81 1019.80 1019.70 1019.53 1019.33 1019.11 1018.91
1012.30 1012.73 1013.11 1013.40 1013.60 1013.72 1013.81 1013.92 1014.08 1014.31 1014.62 1014.98 1015.35 1015.68 1015.93 1016.08 1016.12 1016.09 1016.02 1015.96 1015.96 1016.04 1016.20 1016.45 1016.76 1017.10 1017.45 1017.77 1018.08 1018.36 1018.63 1018.89 1019.14 1019.39 1019.60 1019.76 1019.85 1019.85 1019.75 1019.57 1019.32 1019.04 1018.77
1012.04 1012.52 1012.93 1013.23 1013.43 1013.55 1013.63 1013.73 1013.91 1014.19 1014.56 1014.99 1015.44 1015.85 1016.16 1016.34 1016.39 1016.34 1016.24 1016.13 1016.07 1016.11 1016.25 1016.48 1016.79 1017.14 1017.49 1017.83 1018.12 1018.39 1018.64 1018.87 1019.11 1019.34 1019.55 1019.73 1019.84 1019.86 1019.78 1019.60 1019.33 1019.00 1018.65
1011.63 1012.17 1012.63 1012.99 1013.21 1013.33 1013.41 1013.50 1013.68 1013.97 1014.37 1014.86 1015.37 1015.84 1016.21 1016.45 1016.53 1016.49 1016.38 1016.26 1016.18 1016.19 1016.31 1016.54 1016.85 1017.19 1017.54 1017.86 1018.14 1018.38 1018.60 1018.80 1019.01 1019.23 1019.44 1019.63 1019.77 1019.82 1019.77 1019.60 1019.33 1018.97 1018.56
1011.06 1011.69 1012.24 1012.66 1012.93 1013.08 1013.16 1013.24 1013.41 1013.69 1014.10 1014.60 1015.15 1015.67 1016.10 1016.38 1016.51 1016.51 1016.42 1016.31 1016.24 1016.24 1016.36 1016.58 1016.88 1017.21 1017.55 1017.85 1018.11 1018.32 1018.50 1018.67 1018.85 1019.05 1019.26 1019.47 1019.63 1019.72 1019.71 1019.58 1019.32 1018.96 1018.52
1010.38 1011.09 1011.73 1012.24 1012.57 1012.76 1012.85 1012.93 1013.08 1013.34 1013.73 1014.24 1014.80 1015.35 1015.82 1016.16 1016.34 1016.39 1016.34 1016.26 1016.21 1016.23 1016.34 1016.56 1016.85 1017.17 1017.49 1017.77 1018.01 1018.19 1018.33 1018.47 1018.62 1018.80 1019.01 1019.22 1019.41 1019.55 1019.58 1019.49 1019.27 1018.93 1018.48
1009.59 1010.38 1011.11 1011.70 1012.10 1012.34 1012.47 1012.55 1012.69 1012.93 1013.29 1013.78 1014.34 1014.90 1015.40 1015.78 1016.02 1016.13 1016.13 1016.09 1016.07 1016.11 1016.23 1016.44 1016.72 1017.03 1017.33 1017.60 1017.81 1017.96 1018.07 1018.18 1018.30 1018.46 1018.66 1018.88 1019.09 1019.26 1019.35 1019.32 1019.15 1018.85 1018.44
1008.76 1009.59 1010.38 1011.04 1011.52 1011.81 1011.97 1012.08 1012.21 1012.44 1012.79 1013.26 1013.81 1014.38 1014.89 1015.31 1015.59 1015.74 1015.80 1015.81 1015.82 1015.88 1016.01 1016.23 1016.50 1016.79 1017.08 1017.32 1017.51 1017.64 1017.73 1017.81 1017.90 1018.04 1018.22 1018.44 1018.67 1018.87 1019.01 1019.04 1018.95 1018.71 1018.35
1007.92 1008.77 1009.60 1010.30 1010.83 1011.17 1011.38 1011.52 1011.67 1011.91 1012.25 1012.71 1013.25 1013.81 1014.33 1014.76 1015.08 1015.27 1015.38 1015.42 1015.47 1015.55 1015.70 1015.91 1016.18 1016.47 1016.74 1016.97 1017.14 1017.26 1017.33 1017.38 1017.45 1017.56 1017.72 1017.92 1018.15 1018.38 1018.56 1018.65 1018.63 1018.49 1018.21
1007.18 1008.00 1008.81 1009.53 1010.08 1010.47 1010.72 1010.91 1011.09 1011.35 1011.70 1012.15 1012.68 1013.23 1013.75 1014.20 1014.53 1014.75 1014.89 1014.97 1015.05 1015.16 1015.32 1015.54 1015.81 1016.09 1016.35 1016.58 1016.74 1016.85 1016.90 1016.93 1016.98 1017.06 1017.18 1017.36 1017.58 1017.81 1018.02 1018.17 1018.23 1018.17 1017.99
1006.61 1007.36 1008.13 1008.81 1009.36 1009.77 1010.06 1010.29 1010.52 1010.80 1011.17 1011.63 1012.15 1012.68 1013.19 1013.63 1013.96 1014.20 1014.36 1014.48 1014.58 1014.72 1014.90 1015.13 1015.41 1015.69 1015.96 1016.19 1016.35 1016.45 1016.50 1016.52 1016.53 1016.58 1016.67 1016.82 1017.01 1017.22 1017.44 1017.62 1017.74 1017.77 1017.70
1006.29 1006.95 1007.63 1008.24 1008.75 1009.15 1009.46 1009.73 1010.00 1010.32 1010.71 1011.17 1011.67 1012.18 1012.66 1013.07 1013.40 1013.64 1013.81 1013.95 1014.09 1014.25 1014.46 1014.71 1015.00 1015.30 1015.57 1015.81 1015.98 1016.09 1016.13 1016.14 1016.14 1016.16 1016.21 1016.31 1016.46 1016.65 1016.85 1017.05 1017.20 1017.30 1017.32
1006.28 1006.82 1007.37 1007.89 1008.33 1008.70 1009.01 1009.29 1009.59 1009.93 1010.33 1010.77 1011.25 1011.71 1012.15 1012.52 1012.82 1013.05 1013.24 1013.39 1013.56 1013.75 1013.99 1014.27 1014.58 1014.89 1015.18 1015.43 1015.61 1015.73 1015.78 1015.79 1015.78 1015.77 1015.79 1015.85 1015.95 1016.09 1016.27 1016.45 1016.62 1016.76 1016.85
1006.57 1006.98 1007.39 1007.78 1008.13 1008.45 1008.73 1009.02 1009.33 1009.67 1010.05 1010.46 1010.89 1011.29 1011.66 1011.98 1012.24 1012.45 1012.62 1012.80 1012.98 1013.21 1013.47 1013.78 1014.11 1014.44 1014.74 1015.00 1015.20 1015.33 1015.40 1015.41 1015.40 1015.38 1015.38 1015.40 1015.46 1015.56 1015.69 1015.84 1016.01 1016.16 1016.29
1007.12 1007.38 1007.65 1007.91 1008.16 1008.41 1008.65 1008.92 1009.21 1009.54 1009.88 1010.24 1010.59 1010.91 1011.20 1011.44 1011.64 1011.81 1011.98 1012.15 1012.36 1012.60 1012.88 1013.20 1013.54 1013.87 1014.18 1014.44 1014.65 1014.80 1014.88 1014.92 1014.93 1014.92 1014.91 1014.92 1014.95 1015.01 1015.09 1015.21 1015.35 1015.49 1015.64
1007.81 1007.95 1008.09 1008.23 1008.38 1008.55 1008.75 1008.99 1009.25 1009.53 1009.82 1010.10 1010.36 1010.58 1010.77 1010.92 1011.05 1011.18 1011.31 1011.48 1011.68 1011.92 1012.21 1012.52 1012.84 1013.16 1013.45 1013.70 1013.90 1014.06 1014.17 1014.23 1014.27 1014.29 1014.31 1014.33 1014.35 1014.39 1014.45 1014.53 1014.63 1014.76 1014.90
1008.54 1008.58 1008.60 1008.65 1008.72 1008.83 1008.99 1009.19 1009.41 1009.64 1009.86 1010.05 1010.20 1010.32 1010.40 1010.46 1010.51 1010.57 1010.66 1010.80 1010.98 1011.20 1011.45 1011.73 1012.01 1012.28 1012.52 1012.74 1012.92 1013.08 1013.20 1013.30 1013.39 1013.46 1013.53 1013.58 1013.63 1013.68 1013.73 1013.79 1013.86 1013.96 1014.09
1009.20 1009.16 1009.11 1009.09 1009.11 1009.19 1009.31 1009.48 1009.66 1009.84 1009.98 1010.09 1010.14 1010.15 1010.13 1010.09 1010.05 1010.05 1010.09 1010.17 1010.30 1010.47 1010.66 1010.87 1011.07 1011.26 1011.43 1011.58 1011.73 1011.86 1012.00 1012.13 1012.28 1012.41 1012.55 1012.66 1012.76 1012.84 1012.91 1012.97 1013.03 1013.11 1013.21
1009.69 1009.61 1009.53 1009.48 1009.48 1009.55 1009.66 1009.81 1009.97 1010.09 1010.18 1010.20 1010.17 1010.08 1009.96 1009.83 1009.72 1009.65 1009.62 1009.64 1009.70 1009.79 1009.89 1010.00 1010.09 1010.17 1010.25 1010.32 1010.40 1010.50 1010.64 1010.80 1010.99 1011.20 1011.41 1011.60 1011.77 1011.90 1012.00 1012.08 1012.15 1012.22 1012.31
1010.00 1009.91 1009.82 1009.78 1009.79 1009.87 1009.99 1010.14 1010.27 1010.36 1010.40 1010.36 1010.25 1010.09 1009.90 1009.70 1009.53 1009.39 1009.29 1009.24 1009.22 1009.21 1009.21 1009.20 1009.17 1009.13 1009.09 1009.06 1009.07 1009.12 1009.24 1009.42 1009.65 1009.91 1010.18 1010.45 1010.69 1010.88 1011.03 1011.14 1011.23 1011.31 1011.39
1010.13 1010.05 1009.99 1009.98 1010.02 1010.12 1010.26 1010.41 1010.53 1010.60 1010.59 1010.51 1010.35 1010.14 1009.90 1009.66 1009.43 1009.24 1009.09 1008.97 1008.87 1008.77 1008.66 1008.53 1008.37 1008.21 1008.05 1007.92 1007.85 1007.85 1007.94 1008.11 1008.35 1008.65 1008.96 1009.28 1009.57 1009.81 1010.01 1010.16 1010.27 1010.36 1010.46
1010.13 1010.08 1010.05 1010.07 1010.15 1010.28 1010.43 1010.58 1010.69 1010.74 1010.71 1010.60 1010.41 1010.17 1009.90 1009.64 1009.38 1009.16 1008.97 1008.79 1008.62 1008.44 1008.23 1008.00 1007.73 1007.46 1007.21 1006.99 1006.84 1006.78 1006.82 1006.97 1007.20 1007.49 1007.82 1008.15 1008.46 1008.73 1008.94 1009.12 1009.26 1009.37 1009.49
1010.03 1010.02 1010.03 1010.09 1010.19 1010.33 1010.48 1010.61 1010.71 1010.73 1010.68 1010.54 1010.34 1010.10 1009.82 1009.55 1009.29 1009.06 1008.84 1008.63 1008.41 1008.17 1007.90 1007.59 1007.25 1006.90 1006.56 1006.28 1006.07 1005.95 1005.94 1006.04 1006.23 1006.48 1006.77 1007.08 1007.36 1007.62 1007.84 1008.01 1008.17 1008.30 1008.44
1009.89 1009.90 1009.94 1010.02 1010.12 1010.25 1010.38 1010.49 1010.54 1010.53 1010.45 1010.30 1010.10 1009.85 1009.59 1009.33 1009.09 1008.86 1008.64 1008.41 1008.17 1007.90 1007.58 1007.23 1006.85 1006.45 1006.08 1005.75 1005.50 1005.33 1005.27 1005.31 1005.43 1005.61 1005.83 1006.06 1006.28 1006.48 1006.66 1006.82 1006.97 1007.11 1007.27
1009.71 1009.75 1009.79 1009.86 1009.95 1010.05 1010.13 1010.18 1010.19 1010.13 1010.02 1009.85 1009.65 1009.41 1009.17 1008.93 1008.71 1008.50 1008.29 1008.07 1007.82 1007.53 1007.21 1006.84 1006.45 1006.05 1005.66 1005.32 1005.04 1004.84 1004.73 1004.69 1004.73 1004.81 1004.93 1005.05 1005.18 1005.30 1005.41 1005.52 1005.65 1005.79 1005.97
1009.49 1009.54 1009.58 1009.63 1009.67 1009.71 1009.73 1009.72 1009.66 1009.55 1009.40 1009.21 1009.00 1008.78 1008.56 1008.35 1008.15 1007.96 1007.76 1007.55 1007.31 1007.02 1006.70 1006.34 1005.96 1005.57 1005.20 1004.86 1004.58 1004.36 1004.20 1004.10 1004.05 1004.02 1004.02 1004.03 1004.03 1004.05 1004.07 1004.12 1004.21 1004.34 1004.53
Thickness
5805 5805 5804 5802 5799 5796 5792 5789 5786 5785 5783 5781 5778 5776 5774 5775 5775 5775 5774 5774 5773 5772 5771 5768 5766 5764 5762 5760 5758 5755 5752 5749 5748 5743 5739 5739 5740 5739 5739 5737 5735 5734 5733
5803 5803 5803 5802 5799 5795 5793 5790 5788 5787 5785 5783 5781 5779 5777 5775 5775 5775 5773 5772 5772 5771 5769 5767 5765 5763 5761 5758 5756 5754 5750 5747 5747 5741 5734 5729 5730 5733 5736 5734 5732 5731 5730
5806 5804 5803 5801 5800 5797 5795 5794 5790 5789 5787 5786 5783 5780 5777 5774 5773 5771 5771 5771 5770 5769 5768 5766 5765 5762 5761 5758 5756 5754 5751 5746 5745 5744 5737 5728 5722 5724 5728 5729 5729 5728 5727
5811 5808 5806 5802 5801 5800 5799 5796 5793 5791 5790 5788 5783 5779 5774 5770 5771 5770 5770 5770 5769 5768 5767 5766 5764 5761 5759 5758 5756 5755 5752 5748 5743 5743 5742 5738 5733 5724 5719 5722 5725 5725 5724
5815 5812 5810 5807 5806 5804 5801 5798 5795 5792 5791 5789 5785 5780 5776 5774 5772 5771 5769 5768 5768 5768 5767 5765 5763 5760 5759 5757 5756 5754 5752 5749 5745 5742 5740 5737 5734 5730 5722 5716 5717 5719 5719
5819 5816 5815 5811 5808 5806 5803 5800 5795 5793 5791 5789 5786 5782 5778 5775 5772 5769 5767 5766 5766 5766 5765 5764 5762 5760 5758 5757 5755 5753 5751 5749 5746 5743 5741 5737 5733 5728 5724 5717 5714 5713 5713
5820 5817 5814 5811 5808 5806 5804 5800 5796 5793 5791 5789 5786 5783 5780 5777 5773 5770 5768 5765 5764 5763 5763 5763 5761 5759 5758 5756 5754 5752 5750 5748 5745 5743 5741 5739 5736 5733 5728 5720 5714 5710 5709
5824 5820 5818 5815 5812 5810 5806 5802 5797 5794 5792 5789 5786 5784 5781 5778 5775 5772 5769 5767 5765 5763 5763 5762 5760 5759 5757 5755 5753 5751 5749 5747 5745 5743 5741 5739 5736 5734 5730 5723 5715 5707 5704
5826 5823 5821 5818 5816 5812 5809 5805 5800 5796 5793 5790 5787 5784 5781 5779 5775 5773 5771 5768 5765 5764 5762 5761 5759 5757 5755 5753 5751 5749 5747 5745 5743 5742 5740 5738 5736 5734 5731 5727 5721 5711 5701
5826 5824 5822 5821 5818 5815 5812 5808 5803 5798 5795 5791 5787 5784 5781 5778 5776 5773 5770 5767 5765 5763 5761 5759 5757 5755 5753 5751 5749 5747 5745 5742 5741 5739 5738 5736 5734 5732 5730 5727 5722 5718 5709
5827 5826 5824 5823 5820 5816 5812 5807 5803 5798 5794 5791 5787 5783 5780 5777 5775 5772 5769 5766 5764 5762 5760 5758 5755 5753 5750 5749 5746 5744 5742 5739 5738 5736 5735 5732 5731 5729 5726 5724 5720 5715 5710
5829 5828 5826 5822 5818 5814 5811 5807 5803 5798 5795 5792 5787 5783 5780 5776 5773 5770 5768 5766 5763 5761 5759 5756 5753 5750 5748 5746 5743 5741 5738 5736 5734 5732 5731 5728 5728 5725 5722 5720 5716 5712 5709
5825 5824 5822 5818 5816 5813 5810 5807 5803 5799 5795 5791 5786 5782 5778 5775 5772 5769 5767 5764 5761 5758 5756 5753 5750 5747 5745 5743 5741 5738 5735 5733 5731 5729 5727 5725 5724 5720 5719 5716 5713 5710 5707
5821 5819 5816 5815 5814 5812 5810 5806 5803 5800 5795 5790 5785 5780 5777 5775 5772 5769 5765 5762 5760 5756 5753 5750 5748 5745 5742 5740 5738 5735 5732 5730 5728 5726 5724 5723 5721 5718 5716 5713 5709 5706 5701
5814 5814 5811 5810 5810 5809 5807 5804 5801 5799 5795 5789 5783 5780 5778 5775 5771 5767 5763 5760 5758 5754 5751 5748 5745 5742 5740 5737 5735 5732 5730 5726 5724 5722 5721 5719 5718 5716 5713 5710 5705 5702 5696
5810 5811 5810 5808 5807 5806 5804 5802 5800 5798 5794 5788 5783 5781 5776 5772 5768 5765 5761 5757 5754 5751 5748 5744 5741 5739 5737 5735 5733 5730 5726 5723 5719 5717 5715 5715 5713 5711 5709 5706 5703 5700 5694
5808 5807 5807 5806 5805 5805 5803 5800 5798 5796 5791 5786 5782 5779 5774 5770 5766 5763 5758 5754 5751 5748 5743 5740 5737 5734 5732 5731 5729 5726 5723 5719 5716 5713 5710 5710 5709 5706 5703 5701 5698 5694 5691
5805 5805 5805 5804 5804 5803 5801 5799 5796 5792 5788 5783 5780 5776 5772 5768 5765 5760 5756 5752 5749 5745 5740 5736 5733 5730 5728 5727 5724 5721 5718 5714 5711 5709 5707 5703 5701 5701 5698 5695 5691 5687 5685
5802 5802 5802 5802 5800 5798 5797 5793 5789 5787 5783 5779 5777 5773 5770 5766 5762 5758 5753 5749 5745 5741 5737 5734 5730 5727 5724 5722 5720 5717 5712 5708 5705 5704 5701 5699 5696 5694 5692 5688 5684 5680 5678
5796 5796 5796 5794 5793 5793 5792 5787 5783 5781 5779 5778 5775 5772 5768 5764 5759 5755 5750 5747 5743 5738 5734 5729 5727 5723 5720 5718 5715 5711 5707 5702 5699 5698 5696 5694 5691 5688 5685 5681 5677 5673 5671
5789 5789 5788 5786 5786 5787 5785 5780 5778 5775 5776 5774 5771 5767 5764 5760 5756 5752 5748 5744 5739 5733 5729 5724 5721 5718 5716 5713 5710 5706 5702 5698 5694 5692 5689 5687 5685 5682 5678 5675 5672 5669 5666
5780 5781 5779 5778 5779 5779 5776 5773 5771 5773 5770 5767 5764 5760 5758 5755 5752 5747 5742 5738 5734 5727 5722 5718 5714 5712 5710 5708 5705 5700 5697 5694 5690 5686 5684 5681 5678 5675 5672 5669 5667 5664 5660
5771 5773 5772 5771 5771 5771 5769 5766 5766 5766 5763 5759 5756 5754 5751 5748 5745 5741 5736 5731 5727 5722 5717 5713 5708 5705 5704 5702 5699 5695 5691 5688 5684 5681 5678 5675 5671 5668 5665 5663 5660 5656 5652
5762 5763 5763 5761 5761 5762 5763 5762 5761 5760 5756 5752 5748 5746 5743 5739 5737 5734 5731 5726 5721 5717 5713 5709 5704 5700 5697 5694 5692 5688 5684 5680 5676 5673 5670 5667 5664 5661 5658 5655 5652 5648 5645
5752 5754 5753 5753 5752 5754 5753 5754 5753 5752 5748 5744 5741 5738 5735 5732 5728 5725 5722 5720 5717 5715 5710 5706 5702 5696 5691 5690 5687 5683 5678 5674 5670 5665 5661 5658 5654 5651 5649 5646 5643 5640 5636
5743 5744 5744 5743 5743 5744 5744 5745 5746 5744 5740 5735 5733 5730 5727 5724 5720 5716 5711 5709 5708 5707 5704 5701 5697 5693 5689 5684 5679 5675 5672 5667 5663 5658 5653 5650 5647 5644 5641 5638 5635 5631 5628